This is the latest recevied weather packets stored in our database for station/object N9BID. If no packets are shown the sender has not sent any weather packets the latest 10 day(s).
| Time | Temp. | Humidity | Pressure | Rain* | Wind** | Luminosity | Snow |
|---|---|---|---|---|---|---|---|
| 1787771002 | 22.78° C | 76% | 1012.3 hPa | 0 mm | - | 202 W/m² | - |
| 1787770701 | 23.33° C | 76% | 1012.2 hPa | 0 mm | - | 104 W/m² | - |
| 1787770395 | 22.78° C | 78% | 1012.2 hPa | 0 mm | - | 93 W/m² | - |
| 1787770094 | 22.78° C | 79% | 1012.3 hPa | 0 mm | - | 99 W/m² | - |
| 1787769789 | 22.78° C | 79% | 1012 hPa | 0 mm | - | 90 W/m² | - |
| 1787769488 | 22.22° C | 80% | 1012.1 hPa | 0 mm | - | 85 W/m² | - |
| 1787769183 | 21.67° C | 81% | 1012.1 hPa | 0 mm | - | 396 W/m² | - |
| 1787768882 | 21.67° C | 82% | 1012.3 hPa | 0 mm | - | 67 W/m² | - |
| 1787768578 | 22.22° C | 82% | 1012.1 hPa | 0 mm | - | 100 W/m² | - |
| 1787768275 | 22.22° C | 82% | 1012.2 hPa | 0 mm | - | 266 W/m² | - |
| 1787767971 | 21.67° C | 82% | 1012.2 hPa | 0 mm | - | 215 W/m² | - |
| 1787767671 | 21.67° C | 82% | 1012.5 hPa | 0 mm | - | 136 W/m² | - |
| 1787767370 | 22.22° C | 80% | 1012.3 hPa | 0 mm | - | 225 W/m² | - |
| 1787767069 | 21.67° C | 82% | 1012.4 hPa | 0 mm | - | 193 W/m² | - |
| 1787766768 | 21.11° C | 83% | 1012.4 hPa | 0 mm | - | 205 W/m² | - |
| 1787766462 | 21.11° C | 82% | 1012.6 hPa | 0 mm | - | 136 W/m² | - |
| 1787766157 | 21.67° C | 81% | 1012.4 hPa | 0 mm | - | 78 W/m² | - |
| 1787765852 | 21.67° C | 84% | 1012.3 hPa | 0 mm | - | 270 W/m² | - |
| 1787765549 | 22.22° C | 81% | 1012.4 hPa | 0 mm | - | 91 W/m² | - |
| 1787765249 | 22.22° C | 83% | 1012.3 hPa | 0 mm | - | 498 W/m² | - |
| 1787764948 | 21.67° C | 81% | 1012.4 hPa | 0 mm | - | 244 W/m² | - |
| 1787764643 | 21.67° C | 83% | 1012.6 hPa | 0 mm | - | 493 W/m² | - |
| 1787764346 | 21.67° C | 83% | 1012.4 hPa | 0 mm | - | 562 W/m² | - |
| 1787764040 | 21.11° C | 85% | 1012.4 hPa | 0 mm | - | 736 W/m² | - |
| 1787763734 | 21.11° C | 85% | 1012.5 hPa | 0 mm | - | 307 W/m² | - |
* Rain latest hour (hover to see other rain measurements)
** Current wind speed in m/s (hover to see current wind gust speed)